RH
39 36 24 26 27 21 17 15 12 10 8 8 16 24 32 32 27 26 17 13 12 13 10 8 9 11 11 13 19 25 19 21 20 28 59 61 59 57 57 52 49 40 36 26 20
33 26 25 27 24 17 13 13 12 11 8 11 20 28 28 23 21 15 14 13 15 11 4 5 6 8 8 9 27 18 24 21 17 35 41 37 33 42 65 48 38 37 36 24 16
27 25 26 26 19 13 14 15 15 12 8 12 20 20 18 15 15 34 20 18 14 12 12 11 8 6 8 20 25 19 18 20 17 33 36 38 41 54 41 28 22 27 35 22 15
25 25 25 22 14 15 17 17 16 12 8 9 12 12 12 16 31 20 15 15 17 18 18 18 13 8 14 15 17 18 16 15 26 32 34 30 33 43 25 22 19 21 28 21 16
26 26 24 15 14 17 18 18 16 13 7 9 10 10 15 27 29 22 16 16 19 26 28 25 19 19 18 17 20 18 14 15 27 26 21 25 25 19 20 22 21 22 24 24 16
26 25 17 16 17 19 19 19 15 10 7 9 9 14 28 33 27 23 31 24 30 32 29 24 23 25 22 20 18 12 12 14 20 18 15 16 18 15 17 19 21 25 31 41 42
26 19 16 18 19 20 19 18 14 7 8 10 10 25 38 34 27 32 31 31 34 30 26 26 26 24 20 19 14 11 11 12 13 13 13 19 16 14 15 16 19 25 36 47 52
21 15 19 20 21 20 18 16 11 8 10 10 22 38 37 37 30 32 31 33 34 31 24 24 26 20 17 16 12 14 9 13 13 12 12 12 11 12 16 16 19 24 37 48 52
17 18 20 22 21 19 16 12 10 10 10 18 33 44 42 34 31 30 29 32 30 31 24 23 24 18 14 15 15 20 21 17 14 14 14 14 17 17 20 19 19 23 24 40 55
20 20 22 21 20 18 14 12 11 11 17 24 43 39 42 36 32 28 27 27 30 28 21 21 25 18 17 19 19 17 20 21 22 22 21 16 16 24 26 22 20 22 22 27 41
21 22 22 19 15 15 13 11 18 23 24 26 38 32 33 33 30 28 26 21 18 22 16 19 22 22 22 19 20 21 21 22 22 22 23 24 26 26 22 24 20 23 23 25 27
22 22 21 14 15 13 16 28 27 24 24 28 34 35 34 25 26 24 21 18 14 15 22 25 24 23 24 23 22 22 23 24 25 22 23 24 25 24 22 24 20 22 25 26 28
22 21 17 15 16 28 34 34 33 31 22 25 30 35 27 30 26 21 17 15 11 24 27 27 29 28 25 24 21 24 26 28 28 28 26 25 27 26 24 24 22 23 24 26 29
22 20 15 18 32 49 42 35 30 23 25 34 38 29 32 32 27 19 20 20 20 32 29 28 28 28 26 25 25 28 30 32 31 31 29 30 34 36 32 25 23 24 28 36 43
22 18 19 35 58 44 51 32 40 38 46 37 34 29 32 31 24 21 22 31 29 30 26 27 24 24 24 26 24 27 33 33 31 30 28 36 36 41 41 38 35 37 44 54 67
21 21 36 44 58 50 50 44 44 42 41 35 30 30 38 34 27 31 33 30 28 30 28 26 27 27 30 33 34 31 28 32 40 44 51 53 45 43 38 37 39 50 60 70 67
24 35 44 57 65 67 51 52 50 50 31 32 29 36 38 35 27 30 32 29 30 33 32 34 34 32 31 39 35 34 38 46 59 67 70 55 53 42 45 47 53 50 58 60 62
36 44 47 69 68 70 56 53 46 54 29 31 27 35 39 35 29 23 33 31 31 29 33 35 37 35 33 38 42 40 42 46 57 77 62 49 55 48 47 58 60 60 59 60 66
41 52 51 67 67 66 54 48 53 44 35 29 30 32 38 34 29 27 32 35 35 32 29 41 44 33 33 47 46 40 30 39 42 54 57 56 58 50 47 53 53 58 58 61 63
44 53 50 65 62 61 49 44 51 42 35 25 29 35 37 41 34 32 30 37 37 41 36 41 44 34 28 38 45 47 42 39 38 56 53 54 62 51 48 49 53 58 58 61 56
48 53 49 56 58 54 43 44 50 44 34 33 37 38 38 41 42 42 39 40 36 40 44 45 42 42 40 42 35 40 36 29 30 43 62 75 52 41 52 57 57 60 62 62 67
47 51 46 46 52 49 39 59 58 47 36 36 37 37 38 40 41 44 43 42 42 38 47 47 44 40 44 43 41 43 41 28 21 35 48 51 34 33 42 59 64 64 68 68 71
48 49 45 42 45 42 38 64 60 52 45 37 40 39 38 39 42 43 42 43 45 33 41 47 42 43 45 36 29 28 31 29 29 29 35 57 26 28 36 42 53 63 65 70 74
46 48 44 40 38 37 38 45 60 57 41 40 39 37 38 40 37 39 43 45 48 37 34 43 39 33 33 26 25 28 26 27 31 32 29 25 21 27 34 43 46 50 50 62 70
53 45 40 37 33 33 36 34 58 53 40 38 42 43 41 43 44 45 47 48 48 42 34 28 34 36 33 28 28 32 30 22 26 27 32 18 22 25 32 39 50 57 60 64 71
55 51 36 28 27 29 33 31 51 50 46 34 46 45 47 48 45 46 48 51 49 41 31 27 24 24 33 35 34 29 26 24 27 28 25 22 18 21 28 40 46 50 56 66 77
50 47 33 28 27 26 28 43 55 46 47 46 44 40 45 46 46 48 46 47 43 40 29 25 14 18 26 25 30 31 12 11 10 12 17 20 15 26 25 33 38 49 61 72 82
Wind_Speed
30 30 32 31 32 32 29 26 23 19 15 13 12 14 13 14 16 15 10 12 12 11 9 10 13 14 16 15 14 11 10 9 11 14 19 7 6 5 14 14 11 4 4 4 13
30 30 30 32 32 32 28 24 22 17 14 12 12 12 12 13 13 9 9 9 9 10 11 12 14 13 16 16 15 13 13 9 9 17 11 1 2 15 19 11 5 5 2 5 10
29 29 30 32 32 30 25 22 19 15 13 13 13 13 11 10 5 4 6 8 9 10 12 13 15 18 17 21 17 9 9 11 12 17 19 18 16 17 11 3 2 3 5 11 12
28 27 30 31 31 28 22 17 15 14 13 14 13 12 9 6 5 4 7 11 8 7 10 12 12 13 15 23 17 7 3 6 21 15 13 16 14 18 8 2 5 11 8 7 9
26 26 30 29 28 23 17 14 12 13 14 13 12 11 9 11 9 10 11 8 6 7 9 8 8 8 12 14 7 7 9 5 19 12 12 15 11 5 5 3 2 8 12 11 8
25 27 29 27 24 17 13 12 12 13 13 12 12 12 15 14 12 15 11 12 13 10 9 11 9 9 9 10 5 12 10 12 16 14 12 10 10 5 5 4 1 8 12 17 17
24 27 27 23 19 13 13 11 12 14 13 13 13 17 18 14 16 16 16 15 12 11 12 10 4 5 10 12 8 11 11 14 17 15 13 11 9 7 4 3 7 9 12 12 12
22 26 22 19 14 11 11 11 14 15 14 15 16 20 15 12 14 14 14 13 10 9 12 9 5 8 12 15 14 9 7 13 13 15 12 10 6 6 3 4 7 8 10 8 8
21 22 16 14 10 10 11 14 15 15 15 16 21 16 12 13 12 13 13 12 8 6 7 6 7 9 16 17 14 9 8 5 13 12 11 12 1 7 7 7 4 6 7 10 11
19 17 12 12 11 13 14 15 15 16 18 20 20 13 11 13 14 14 10 9 6 4 4 6 9 15 15 12 9 9 8 6 7 10 7 7 11 8 8 13 11 10 11 13 13
16 13 12 13 14 15 15 16 16 16 19 21 18 8 10 12 18 17 11 10 8 8 6 10 11 10 8 7 4 3 5 9 10 14 10 13 11 10 12 18 17 15 15 17 16
14 13 14 15 16 17 18 17 16 14 18 19 16 10 9 12 18 17 14 11 9 7 12 11 12 8 7 4 4 2 3 1 7 10 14 14 14 14 14 18 20 18 18 21 22
15 15 16 17 20 21 20 18 14 12 16 17 12 10 8 9 11 22 17 12 9 10 9 8 7 7 4 5 2 5 6 10 9 10 8 9 11 11 14 18 21 20 23 24 25
18 19 21 24 25 23 18 16 14 13 11 12 12 12 9 7 9 16 16 11 12 9 6 6 6 4 5 4 3 9 8 5 6 6 4 8 6 12 14 19 22 23 21 16 14
22 24 26 27 25 21 17 17 14 15 3 12 14 12 9 8 9 13 13 10 13 11 10 7 6 5 6 6 5 7 8 7 6 5 5 8 5 10 14 16 17 18 15 11 8
26 29 31 29 24 20 18 18 15 7 3 13 15 15 12 9 13 15 11 12 12 11 8 9 9 6 6 6 6 7 8 7 5 3 2 4 8 9 18 20 19 17 13 11 11
30 32 31 29 23 20 20 19 10 4 11 13 18 17 13 11 12 16 12 16 12 12 11 9 6 7 8 8 5 5 6 0 1 1 4 3 6 11 15 19 18 16 15 14 13
34 34 31 28 23 21 21 19 6 4 15 14 17 17 13 12 10 17 14 15 13 9 15 9 4 6 7 9 4 4 8 5 5 3 3 3 5 5 9 20 17 16 16 18 13
36 34 33 28 23 22 21 19 3 6 11 18 16 19 14 11 10 18 17 14 13 10 10 8 6 6 7 12 7 5 4 5 2 1 1 3 6 8 8 21 19 23 23 17 13
37 34 34 29 23 23 23 18 5 8 12 17 21 17 16 14 11 13 17 14 13 12 14 7 5 7 6 8 9 7 6 2 2 2 3 4 7 12 9 13 20 23 20 15 17
37 35 34 31 25 24 25 19 6 8 19 22 16 16 14 16 12 14 12 8 13 12 13 12 10 9 8 5 8 9 5 3 3 2 4 1 5 8 12 12 12 14 16 18 19
39 37 35 33 28 28 28 16 7 9 17 22 17 11 11 20 15 16 12 13 10 11 13 13 9 8 14 9 10 9 8 7 3 4 4 2 7 7 9 12 14 15 18 20 22
40 36 35 33 31 30 31 13 6 9 12 19 19 15 9 17 17 17 14 12 9 10 11 14 8 7 5 10 14 12 12 10 8 5 8 4 5 5 9 12 15 20 21 24 25
36 30 35 34 32 32 31 20 8 9 11 13 14 13 11 15 18 14 16 13 11 11 13 15 12 11 15 5 10 15 15 14 13 7 7 17 20 18 16 14 16 20 23 25 25
36 30 39 37 35 33 31 18 12 10 9 10 11 12 12 15 14 10 12 13 11 11 12 12 13 16 15 11 10 13 15 16 18 18 16 21 22 15 16 17 20 22 25 27 27
35 29 35 15 33 33 29 23 17 16 9 10 12 13 14 10 10 9 9 11 11 12 13 13 10 13 16 16 14 17 18 20 22 25 26 25 25 18 15 15 18 18 20 24 26
33 28 29 32 33 34 31 25 20 18 12 10 8 12 15 12 11 9 8 8 8 11 11 13 11 10 7 14 17 19 25 26 28 29 27 26 18 18 18 18 18 19 20 23 26
Wind_Direction
281 287 292 294 295 295 295 294 289 283 272 262 259 260 255 256 265 270 280 250 242 242 239 216 207 207 204 200 183 210 201 217 254 191 219 218 115 203 215 214 195 169 120 74 165
282 288 291 292 294 292 292 290 283 273 260 249 250 252 252 257 269 280 225 231 234 234 200 189 188 186 193 176 189 203 208 257 235 190 199 216 197 198 201 204 214 205 204 116 157
283 287 291 292 292 290 289 285 275 258 245 238 240 242 243 253 253 215 227 222 189 173 173 179 182 183 179 169 194 187 242 245 202 205 228 215 203 197 195 234 299 283 239 161 153
282 287 288 290 291 286 284 276 264 246 231 231 237 235 228 208 159 206 165 145 150 169 178 189 177 171 175 175 185 226 94 239 180 182 205 194 182 182 176 112 75 84 97 122 146
282 285 286 288 286 280 279 266 250 229 219 220 222 218 188 165 155 138 145 143 146 160 170 167 159 167 178 183 237 204 152 125 168 175 169 175 177 157 162 199 44 77 87 90 112
279 285 285 285 278 274 266 248 229 215 213 209 208 189 162 164 151 135 134 135 133 143 152 129 139 174 173 158 202 180 177 159 162 176 179 180 156 164 183 199 66 80 97 93 91
279 283 283 278 269 263 250 229 215 207 205 201 192 169 171 166 157 140 139 139 130 126 120 133 102 159 175 176 155 173 188 189 168 175 173 180 202 227 186 156 87 109 113 112 122
280 281 278 267 261 249 233 215 202 203 198 192 177 172 169 181 166 153 142 141 137 122 122 109 95 146 160 167 152 165 193 187 195 193 181 199 232 239 221 194 126 150 161 169 169
278 275 266 256 240 223 208 204 195 197 190 181 171 176 172 191 169 160 150 150 133 118 112 109 113 144 146 154 164 178 163 163 190 196 210 219 243 231 237 220 203 198 209 205 211
272 262 244 227 207 199 193 194 190 189 187 181 168 180 188 199 176 167 165 158 172 143 124 153 157 154 166 171 196 193 194 200 191 202 216 211 226 257 279 232 219 223 236 229 224
254 236 218 203 191 187 180 180 184 191 186 168 177 174 190 199 189 179 170 180 206 215 211 182 180 172 165 193 194 221 242 265 248 228 223 235 257 264 275 226 215 225 239 247 246
229 212 203 191 175 172 169 177 185 191 182 173 178 181 176 184 187 180 193 205 219 200 168 161 169 172 171 161 190 224 274 113 191 203 216 230 258 268 254 223 216 228 245 257 260
207 194 187 173 166 163 174 181 180 181 182 183 180 190 181 188 191 188 200 215 209 170 159 170 152 154 170 178 207 211 183 167 164 157 187 227 235 241 237 216 221 236 247 258 260
192 185 175 165 166 172 177 173 168 161 161 188 190 177 176 161 167 184 190 193 182 171 158 162 165 174 221 229 173 219 198 180 186 193 179 202 224 230 225 222 226 236 244 248 252
185 179 169 167 168 171 174 172 152 156 111 190 188 189 177 167 183 172 183 173 177 195 176 168 165 181 221 244 249 213 222 241 248 255 227 226 238 236 222 217 222 225 224 221 215
178 172 170 170 170 173 178 163 160 179 240 168 177 175 181 188 172 165 161 165 152 155 151 183 192 212 234 232 230 237 220 218 224 230 237 224 227 249 224 224 215 211 205 198 193
173 170 173 169 168 176 177 168 171 227 168 174 177 174 183 174 176 176 158 160 162 157 167 172 190 216 214 203 211 218 206 179 298 270 219 211 219 249 235 226 222 215 207 202 218
172 175 174 172 173 180 182 179 214 223 174 175 173 168 177 184 179 179 173 169 172 181 173 184 171 175 196 206 210 220 216 215 213 195 232 205 244 226 241 221 210 221 218 219 229
173 177 177 179 179 187 185 187 245 179 184 174 167 174 182 174 183 185 187 188 186 190 197 179 171 188 197 204 214 212 232 212 131 125 296 234 266 262 235 211 212 222 225 237 265
176 179 183 187 183 191 191 194 210 173 184 181 164 180 180 184 183 187 190 200 204 201 205 201 165 197 196 205 217 232 177 185 194 129 264 276 265 238 222 207 218 222 233 257 282
178 183 187 193 191 197 197 196 163 153 171 174 164 175 189 188 196 194 193 204 212 215 215 228 222 195 191 199 184 174 192 198 178 189 159 275 258 285 254 254 245 234 249 264 268
180 188 188 194 195 200 199 190 157 143 179 191 195 198 196 201 205 200 207 217 217 222 212 213 213 187 205 214 210 214 221 212 210 215 213 222 277 270 253 240 240 253 254 257 266
182 189 191 195 199 201 198 180 165 157 172 188 191 206 220 206 203 203 213 223 236 221 212 209 207 175 198 227 226 224 222 229 232 227 222 171 259 263 256 256 246 249 255 263 266
185 185 194 198 202 206 198 199 181 183 181 190 197 210 228 207 198 207 220 229 225 217 209 213 224 216 211 214 206 220 228 233 238 235 240 252 275 285 287 265 257 259 266 261 266
190 193 198 200 200 206 203 204 195 200 200 206 204 200 206 194 201 205 208 215 220 219 215 220 232 229 233 235 232 234 237 242 246 257 259 280 280 289 283 280 268 267 268 269 272
194 195 197 196 202 205 205 206 204 209 214 218 208 205 214 220 236 251 256 238 238 228 224 230 236 234 237 241 245 244 245 250 255 258 263 271 281 292 285 276 272 280 279 271 268
195 198 198 199 196 205 205 197 196 207 223 226 217 216 224 234 249 249 245 229 224 226 231 238 239 237 244 251 256 264 257 258 263 266 265 265 285 277 287 288 288 289 284 272 271